This is the latest recevied weather packets stored in our database for station/object ON7XX-13. If no packets are shown the sender has not sent any weather packets the latest 10 day(s).
| Time | Temp. | Humidity | Pressure | Rain* | Wind** | Luminosity | Snow |
|---|---|---|---|---|---|---|---|
| 1777636592 | 27.22° C | 25% | 1022 hPa | - | - | - | - |
| 1777635978 | 26.67° C | 26% | 1022.1 hPa | - | - | - | - |
| 1777635363 | 26.11° C | 27% | 1022.2 hPa | - | - | - | - |
| 1777634749 | 25.56° C | 27% | 1022.3 hPa | - | - | - | - |
| 1777633521 | 25° C | 28% | 1022.5 hPa | - | - | - | - |
| 1777632907 | 24.44° C | 28% | 1022.5 hPa | - | - | - | - |
| 1777632293 | 23.89° C | 29% | 1022.6 hPa | - | - | - | - |
| 1777631678 | 23.33° C | 30% | 1022.7 hPa | - | - | - | - |
| 1777631064 | 22.78° C | 31% | 1022.8 hPa | - | - | - | - |
| 1777630450 | 22.22° C | 31% | 1022.9 hPa | - | - | - | - |
| 1777629836 | 21.67° C | 31% | 1023 hPa | - | - | - | - |
| 1777629221 | 21.67° C | 33% | 1023 hPa | - | - | - | - |
| 1777628607 | 20.56° C | 32% | 1023.1 hPa | - | - | - | - |
| 1777627993 | 20° C | 33% | 1023.1 hPa | - | - | - | - |
| 1777626765 | 18.89° C | 35% | 1023.1 hPa | - | - | - | - |
| 1777626151 | 18.33° C | 34% | 1023.1 hPa | - | - | - | - |
| 1777625536 | 17.78° C | 36% | 1023.2 hPa | - | - | - | - |
| 1777624921 | 17.22° C | 37% | 1023.1 hPa | - | - | - | - |
| 1777624307 | 16.67° C | 38% | 1023.2 hPa | - | - | - | - |
| 1777623693 | 15.56° C | 39% | 1023.2 hPa | - | - | - | - |
| 1777623079 | 15° C | 40% | 1023.2 hPa | - | - | - | - |
| 1777622464 | 14.44° C | 40% | 1023.4 hPa | - | - | - | - |
| 1777621850 | 13.89° C | 41% | 1023.4 hPa | - | - | - | - |
| 1777621236 | 13.33° C | 42% | 1023.5 hPa | - | - | - | - |
| 1777620622 | 12.22° C | 44% | 1023.5 hPa | - | - | - | - |
* Rain since midnight (hover to see other rain measurements)
** Current wind speed in m/s (hover to see current wind gust speed)